EW5742 Weather Reports


Display with metric or nautical units.
time (UTC)temp
F
wind
direction
speed
MPH
gust
MPH
rain 1hr
in
rain 24hr
in
rain mn
in
humidity
%
barometer
mb
20260902103028 72 148 0.0 0.0 0.00 0.00 0.00 95 1017.4
20260902101525 73 148 0.0 0.0 0.00 0.00 0.00 95 1017.4
20260902100026 73 148 0.0 0.0 0.00 0.00 0.00 95 1017.4
20260902094613 73 148 0.0 0.0 0.00 0.00 0.00 95 1017.3
20260902093109 73 148 0.0 0.0 0.00 0.00 0.00 95 1017.1
20260902091522 73 148 0.0 0.0 0.00 0.00 0.00 95 1017.2
20260902090020 73 148 0.0 0.0 0.00 0.00 0.00 94 1017.1
20260902084548 74 148 0.0 0.0 0.00 0.00 0.00 94 1017.2
20260902083047 74 148 0.0 0.0 0.00 0.00 0.00 94 1017.2
20260902081517 74 148 0.0 0.0 0.00 0.00 0.00 94 1017.1
20260902080017 74 148 0.0 0.0 0.00 0.00 0.00 94 1016.9
20260902074513 74 148 0.0 0.0 0.00 0.00 0.00 94 1016.9
20260902073019 74 148 0.0 0.0 0.00 0.00 0.00 94 1016.9
20260902071507 75 148 0.0 0.0 0.00 0.00 0.00 94 1017.0
20260902070010 75 148 0.0 0.0 0.00 0.00 0.00 94 1017.1
20260902064606 75 148 0.0 0.0 0.00 0.00 0.00 94 1017.1
20260902063058 75 148 0.0 0.0 0.00 0.00 0.00 94 1017.4
20260902061633 75 148 0.0 0.0 0.00 0.00 0.00 93 1017.4
20260902060101 75 148 0.0 0.0 0.00 0.00 0.00 93 1017.4
20260902054536 76 148 0.0 0.0 0.00 0.00 0.00 93 1017.3
20260902053024 76 148 0.0 0.0 0.00 0.00 0.00 93 1017.3
20260902051553 76 148 0.0 0.0 0.00 0.00 0.00 93 1017.4
20260902050050 76 148 0.0 0.0 0.00 0.00 0.00 92 1017.2
20260902044522 76 148 0.0 0.0 0.00 0.00 0.00 92 1017.2
20260902043020 77 148 0.0 0.0 0.00 0.00 0.00 92 1017.0
20260902041605 77 148 0.0 0.0 0.00 0.00 0.00 91 1017.0
20260902040049 77 148 0.0 0.0 0.00 0.00 0.00 91 1016.7
20260902034519 78 148 0.0 0.0 0.00 0.00 0.00 91 1016.8
20260902033018 78 148 0.0 0.0 0.00 0.00 0.00 90 1016.6
20260902031546 79 151 0.0 1.0 0.00 0.00 0.00 90 1016.6
20260902030100 79 143 0.0 2.0 0.00 0.00 0.00 89 1016.4
20260902024549 79 153 0.0 3.0 0.00 0.00 0.00 89 1016.4
20260902023051 79 159 0.0 1.0 0.00 0.00 0.00 89 1016.6
20260902021547 79 155 0.0 4.0 0.00 0.00 0.00 88 1016.5
20260902020039 79 150 0.0 2.0 0.00 0.00 0.00 88 1016.4
20260902014510 79 210 0.0 3.0 0.00 0.00 0.00 88 1016.4
20260902013008 79 12 0.0 1.0 0.00 0.00 0.00 88 1016.3
20260902011506 79 153 0.0 3.0 0.00 0.00 0.00 88 1016.3
20260902010012 79 155 0.0 3.0 0.00 0.00 0.00 88 1016.3
20260902004507 79 141 0.0 3.0 0.00 0.00 0.00 87 1016.3
20260902003003 79 136 0.0 2.0 0.00 0.00 0.00 87 1016.3
20260902001507 80 161 0.0 2.0 0.00 0.00 0.00 87 1016.5
20260902001502 80 160 0.0 2.0 0.00 0.00 0.00 87 1016.5
20260902000049 80 126 0.0 2.0 0.00 0.00 0.00 86 1016.5
20260901234603 80 148 0.0 3.0 0.00 0.00 0.00 85 1016.5
20260901233102 81 162 0.0 3.0 0.00 0.00 0.00 83 1016.5
20260901231558 82 129 1.0 5.0 0.00 0.00 0.00 83 1016.4
20260901230030 82 153 1.0 6.0 0.00 0.00 0.00 81 1016.5
20260901224515 83 118 2.0 7.0 0.00 0.00 0.00 80 1016.5
20260901223046 83 236 2.0 7.0 0.00 0.00 0.00 78 1016.5
20260901221547 84 211 3.0 7.0 0.00 0.00 0.00 77 1016.5
20260901220013 84 159 3.0 8.0 0.00 0.00 0.00 74 1016.6
20260901214528 85 178 4.0 11.0 0.00 0.00 0.00 73 1016.6
20260901213005 86 170 3.0 9.0 0.00 0.00 0.00 70 1016.6
20260901211506 86 181 2.0 11.0 0.00 0.00 0.00 71 1016.5
20260901210005 87 222 2.0 7.0 0.00 0.00 0.00 69 1016.6
20260901204503 87 181 3.0 10.0 0.00 0.00 0.00 67 1016.7
20260901203045 88 155 3.0 6.0 0.00 0.00 0.00 67 1016.6
20260901201555 88 205 2.0 9.0 0.00 0.00 0.00 67 1016.8
20260901200032 88 204 1.0 8.0 0.00 0.00 0.00 68 1016.7
20260901194525 88 246 3.0 8.0 0.00 0.00 0.00 70 1016.8
20260901193018 89 222 4.0 8.0 0.00 0.00 0.00 68 1016.9
20260901191518 88 149 4.0 9.0 0.00 0.00 0.00 67 1017.0
20260901190044 88 102 3.0 10.0 0.00 0.00 0.00 69 1017.0
20260901184543 88 115 4.0 8.0 0.00 0.00 0.00 69 1017.2
20260901183017 87 180 4.0 11.0 0.00 0.00 0.00 73 1017.2
20260901181519 88 261 4.0 9.0 0.00 0.00 0.00 72 1017.2
20260901180043 89 243 1.0 9.0 0.00 0.00 0.00 73 1017.3
20260901174539 89 124 3.0 8.0 0.00 0.00 0.00 71 1017.4
20260901173012 90 115 0.0 6.0 0.00 0.00 0.00 70 1017.4
20260901171510 91 228 2.0 7.0 0.00 0.00 0.00 67 1017.6
20260901170038 91 147 4.0 8.0 0.00 0.00 0.00 67 1017.6
20260901164650 93 138 0.0 2.0 0.00 0.00 0.00 51 1017.7
20260901163033 92 148 0.0 1.0 0.00 0.00 0.00 52 1017.8
20260901161521 91 48 1.0 3.0 0.00 0.00 0.00 56 1017.9
20260901160018 90 28 0.0 4.0 0.00 0.00 0.00 59 1017.9
20260901154526 90 356 0.0 2.0 0.00 0.00 0.00 67 1018.1
20260901153050 89 314 0.0 3.0 0.00 0.00 0.00 65 1018.2
20260901151543 89 345 0.0 3.0 0.00 0.00 0.00 69 1018.3
20260901150015 88 259 0.0 2.0 0.00 0.00 0.00 72 1018.5
20260901144505 86 126 1.0 2.0 0.00 0.00 0.00 74 1018.6
20260901143100 87 123 0.0 2.0 0.00 0.00 0.00 75 1018.6
20260901141601 85 276 0.0 2.0 0.00 0.00 0.00 77 1018.7
20260901140001 85 256 0.0 3.0 0.00 0.00 0.00 78 1018.6
20260901134507 84 126 0.0 2.0 0.00 0.00 0.00 82 1018.5
20260901133040 83 356 0.0 2.0 0.00 0.00 0.00 85 1018.5
20260901131533 81 335 0.0 2.0 0.00 0.00 0.00 87 1018.6
20260901130032 80 41 0.0 3.0 0.00 0.00 0.00 89 1018.6
20260901124528 78 330 0.0 1.0 0.00 0.00 0.00 93 1018.5
20260901123124 77 177 0.0 0.0 0.00 0.00 0.00 93 1018.5
20260901121548 75 177 0.0 0.0 0.00 0.00 0.00 94 1018.5
20260901120049 73 177 0.0 0.0 0.00 0.00 0.00 95 1018.4
20260901113039 70 177 0.0 0.0 0.00 0.00 0.00 96 1018.0
20260901111538 69 177 0.0 0.0 0.00 0.00 0.00 96 1018.0
20260901110040 69 177 0.0 0.0 0.00 0.00 0.00 95 1017.8
20260901104539 69 177 0.0 0.0 0.00 0.00 0.00 95 1017.7